Temp
12 14 15 15 16 17 18 19 19 20 21 22 23 23 24 24 25 24 28 32 32 32 30 31 31 34 36 37 38 37 29 36 37 38 37 38 37 38 37 37 33 35 34 32 32
14 15 15 15 15 16 17 18 19 20 21 22 22 23 23 24 22 28 31 31 32 32 31 34 34 36 36 37 37 23 24 32 35 39 38 39 38 37 36 36 35 34 35 33 33
14 14 14 15 15 16 17 18 18 20 20 21 22 23 23 22 27 33 31 32 32 32 33 35 36 37 37 38 39 25 27 32 33 40 40 39 38 38 36 35 36 34 33 33 33
11 13 14 14 15 17 17 17 18 19 21 21 23 23 23 20 30 32 32 31 31 30 32 35 37 37 37 37 38 27 24 29 40 41 40 39 39 38 37 37 37 35 34 33 34
11 13 13 13 15 17 18 18 19 20 21 21 22 22 20 28 31 32 32 32 30 29 33 35 36 37 37 38 40 32 31 35 41 40 41 40 38 38 38 38 37 35 34 33 33
10 12 13 14 15 16 18 18 19 20 22 21 21 17 20 27 33 33 31 30 33 32 34 36 37 38 38 39 39 41 39 40 41 41 41 39 38 38 38 38 37 35 33 34 34
9 11 13 14 14 16 17 19 20 21 21 21 20 14 25 30 34 33 33 33 32 33 35 35 37 38 38 38 40 41 40 41 40 41 40 40 37 37 38 38 36 35 34 34 34
9 10 12 14 15 16 17 20 21 20 21 20 18 18 26 32 33 33 35 34 35 35 35 36 37 37 38 39 39 39 40 39 40 40 40 39 32 37 38 38 36 35 35 34 34
9 9 11 14 15 17 18 21 21 20 19 19 17 22 30 34 33 34 35 35 35 36 36 36 38 37 37 37 37 39 38 39 38 41 40 38 28 33 35 38 36 36 35 35 35
8 9 10 13 15 17 18 23 21 18 19 19 22 27 30 34 35 35 35 35 36 36 36 36 36 36 36 37 35 37 38 39 38 39 40 32 25 30 33 38 37 36 36 35 35
8 8 9 13 15 17 16 18 27 24 23 29 31 31 36 35 37 36 36 36 36 36 34 36 35 35 36 37 38 39 39 39 39 32 39 36 31 27 31 37 37 37 36 36 36
8 8 9 13 16 18 17 25 28 26 26 30 31 32 34 37 36 36 36 35 35 34 35 35 34 36 38 38 38 38 39 40 39 34 37 39 33 31 32 38 38 37 37 36 36
9 9 9 13 17 20 23 25 26 26 26 29 32 32 34 36 36 37 37 36 35 34 35 35 36 38 38 37 37 38 38 39 39 39 40 40 38 39 39 39 39 39 38 37 37
8 9 9 11 19 17 23 25 25 26 25 31 35 34 35 35 34 37 38 36 36 35 36 36 38 37 37 37 38 37 40 40 40 39 37 40 37 38 40 38 38 39 39 39 38
9 9 9 10 11 17 24 23 24 26 27 37 37 38 37 35 37 36 37 37 35 36 36 36 37 37 37 38 39 38 40 40 40 39 38 36 36 38 39 38 39 39 39 39 39
8 9 9 12 15 17 20 23 25 26 27 36 36 35 35 36 36 38 36 37 37 36 37 37 39 39 39 39 39 40 40 40 40 40 37 37 35 35 38 38 38 40 40 40 40
8 9 9 9 15 19 20 24 25 26 34 35 36 36 35 35 35 37 35 35 35 33 34 36 37 39 40 39 39 39 38 37 36 38 37 39 36 36 39 39 38 37 39 40 40
9 9 13 13 16 17 20 22 23 30 30 37 37 36 35 36 35 36 35 34 35 35 35 34 35 37 39 38 38 38 38 37 34 36 38 40 38 37 39 38 35 35 36 41 41
9 13 15 19 20 19 21 21 25 28 33 34 36 36 36 36 37 36 36 35 36 36 35 36 35 39 39 39 39 38 37 39 38 39 38 40 40 42 42 39 37 38 40 39 39
8 12 17 19 21 21 20 20 25 28 31 32 32 34 35 36 36 37 36 37 36 37 37 37 35 38 39 39 39 38 39 37 37 35 35 39 39 39 39 37 39 38 41 40 40
10 17 20 21 21 20 19 21 23 25 26 26 27 29 32 35 36 36 37 38 37 37 38 37 36 37 39 37 37 37 37 38 38 38 37 36 39 42 40 39 40 40 41 42 43
14 16 21 21 20 21 20 22 21 24 26 27 28 29 29 31 34 36 36 37 39 38 37 37 36 35 37 39 39 38 37 37 36 35 38 38 39 43 41 41 41 41 42 42 42
13 16 18 20 19 20 21 22 24 24 25 26 27 29 30 30 30 32 35 38 39 38 37 38 35 34 35 38 39 38 38 38 38 38 36 37 38 41 41 38 39 41 41 41 40
11 15 19 22 21 21 18 19 21 24 25 26 26 27 28 29 31 31 32 35 37 38 31 36 36 34 35 35 37 37 38 38 38 36 37 38 38 39 40 38 39 40 41 42 40
11 14 17 15 17 17 14 14 15 19 22 23 23 24 21 23 28 29 31 32 35 33 35 36 33 34 36 36 37 37 37 37 37 37 36 38 39 39 40 39 40 39 41 41 41
8 12 14 14 16 16 16 16 16 17 15 17 19 20 19 20 20 17 21 28 32 35 35 35 32 33 33 36 36 36 38 38 38 37 37 38 38 41 41 41 39 39 38 39 40
9 8 9 11 14 16 17 17 14 15 15 18 15 14 16 18 18 19 21 23 27 32 33 33 33 32 32 34 35 34 37 37 38 38 37 36 38 40 39 39 39 39 38 39 39
Height
803 799 796 792 789 784 780 777 774 772 769 766 763 760 757 753 748 747 740 733 731 730 731 732 732 726 720 719 710 706 766 737 728 722 727 713 724 715 722 731 750 744 755 767 772
802 799 795 792 788 784 779 775 772 769 767 764 761 757 755 750 744 736 727 728 729 728 730 727 726 720 718 719 712 756 785 753 730 704 715 712 719 724 732 741 743 748 752 763 770
802 799 795 790 786 781 778 774 770 766 763 760 758 755 753 750 741 715 713 720 724 725 727 723 718 715 719 712 706 766 774 739 719 695 700 712 719 719 734 747 741 751 756 763 767
802 797 793 789 784 779 775 771 768 764 760 757 755 752 751 751 748 716 717 719 721 724 726 719 714 718 723 723 708 769 767 739 694 690 698 711 713 723 728 730 732 743 755 763 766
802 798 793 788 782 777 772 767 764 760 756 753 751 749 749 742 724 719 716 717 719 721 721 716 715 715 723 712 703 735 737 713 693 694 694 701 716 726 724 722 730 744 757 763 767
802 797 791 786 780 775 769 763 758 755 752 750 747 747 749 743 711 710 714 715 716 718 716 712 709 706 709 708 707 691 697 692 689 694 694 707 716 722 727 723 733 745 755 760 763
801 795 790 784 778 772 765 759 754 749 747 745 744 746 740 719 706 706 709 710 713 713 711 711 707 707 704 710 691 691 704 692 694 694 700 700 730 731 723 725 736 745 752 756 760
800 794 787 781 774 768 761 753 748 745 743 742 741 746 727 704 703 704 703 706 706 706 708 706 707 706 706 697 699 704 697 717 692 693 694 707 761 725 718 726 739 744 748 752 756
799 792 784 777 771 763 755 747 742 740 740 739 741 740 715 694 696 695 699 700 702 703 703 703 701 708 709 719 724 708 725 713 710 689 698 713 768 735 726 724 736 741 745 748 753
799 792 785 776 768 760 749 740 735 736 738 741 737 737 700 688 684 689 693 695 697 698 702 704 706 714 715 720 746 727 717 705 714 699 696 733 766 754 733 722 731 736 740 744 748
797 790 783 775 766 760 749 739 733 733 734 715 704 700 678 678 675 681 685 690 691 694 714 703 720 720 713 709 704 699 699 702 695 717 701 715 743 750 737 720 725 729 734 739 741
795 789 781 771 763 756 754 744 734 737 725 705 696 690 680 672 682 678 680 691 695 707 700 708 716 698 695 697 703 699 700 694 687 704 707 703 732 729 727 710 711 719 726 730 735
792 787 781 771 760 754 750 743 738 736 729 688 673 674 671 672 674 671 672 680 691 701 698 706 696 686 692 698 704 699 700 693 700 693 686 696 712 703 695 698 701 703 709 717 725
791 786 781 772 759 756 747 741 740 737 737 682 657 654 662 667 674 660 659 674 683 693 689 691 677 685 692 696 691 707 679 682 689 701 726 691 736 704 693 699 699 699 700 705 713
789 785 781 779 773 760 746 745 742 737 748 639 642 632 638 656 644 654 654 662 682 681 681 688 682 681 688 685 677 689 670 678 681 693 704 716 737 706 688 700 695 693 694 695 698
788 782 778 773 769 755 751 746 741 748 730 653 638 651 653 648 650 637 653 654 659 674 668 671 653 661 665 666 667 667 678 677 678 685 722 713 730 723 701 692 690 680 683 686 688
784 778 774 774 761 753 751 746 748 730 654 651 644 644 649 655 655 644 661 668 674 694 690 672 667 651 651 671 665 672 689 717 724 714 719 684 716 705 673 672 679 687 682 674 675
778 771 759 758 755 754 754 749 737 676 679 622 628 635 655 645 650 648 654 668 656 662 677 689 693 661 646 662 673 676 679 703 739 723 710 672 695 689 663 663 672 687 684 665 668
775 763 752 744 744 749 749 737 696 684 652 647 638 641 640 638 637 643 644 651 646 646 671 670 675 638 642 645 654 668 683 664 692 682 695 674 662 643 643 660 666 669 661 667 668
778 764 740 733 735 741 740 718 691 677 661 654 662 641 645 630 638 632 635 629 638 630 634 647 672 639 636 638 638 652 651 690 682 718 716 684 679 675 659 664 666 666 658 657 649
775 753 733 731 733 734 726 709 703 687 682 684 680 668 645 631 621 625 622 615 616 623 625 639 650 651 632 643 658 664 671 665 667 674 694 704 677 630 641 646 648 649 642 646 643
770 754 727 729 732 720 714 704 703 690 678 672 663 661 656 642 628 616 616 609 594 604 628 625 644 660 644 619 621 635 652 659 682 687 670 674 665 615 619 621 627 633 633 633 635
768 747 733 726 722 715 704 695 688 684 678 672 666 654 642 644 648 625 610 587 588 598 612 613 638 664 658 633 616 633 639 644 652 657 670 682 668 614 622 638 633 631 630 631 631
776 744 722 710 706 706 713 706 693 672 667 663 660 657 648 642 629 632 622 599 584 586 601 600 619 637 646 645 629 638 632 634 646 667 660 655 657 632 629 634 634 626 626 625 627
777 749 733 735 719 717 732 733 721 698 676 671 669 666 681 668 639 634 624 612 595 584 593 604 632 625 621 623 620 622 626 631 642 640 657 642 640 636 622 626 625 624 624 626 628
780 760 751 741 730 719 722 720 717 707 714 700 687 683 685 685 681 688 665 629 609 588 596 601 628 630 632 614 618 625 615 611 618 628 631 632 634 610 608 606 619 627 630 628 628
772 771 770 751 735 722 708 706 718 716 710 695 705 708 697 688 687 678 666 645 625 600 598 608 619 634 643 621 622 637 608 609 611 611 622 642 621 606 612 614 612 612 619 621 619
Wind_Speed
24 24 25 25 25 24 24 23 23 23 23 23 23 22 22 24 26 12 13 18 25 19 10 11 19 23 23 18 19 7 5 7 9 17 16 9 12 19 16 15 17 15 21 28 29
26 26 27 27 27 26 26 26 26 25 24 23 23 23 22 24 22 24 30 29 16 19 14 20 17 20 16 17 13 10 5 6 18 12 15 12 11 13 12 14 16 22 24 29 31
25 26 27 28 29 28 28 28 28 28 27 24 23 22 21 19 14 14 9 19 22 20 19 23 21 17 19 16 19 5 5 24 29 17 16 13 14 11 17 14 12 25 24 22 27
26 27 28 30 30 29 29 29 31 30 29 27 23 22 19 7 7 7 13 9 13 20 20 24 19 20 19 18 7 13 19 23 2 8 16 15 15 9 11 16 19 21 22 21 19
28 29 31 32 32 31 30 32 33 31 29 28 24 19 7 9 20 15 11 8 7 15 24 22 20 20 20 18 18 16 24 29 9 5 11 19 13 11 9 20 21 23 23 22 19
31 31 31 32 33 33 32 35 34 31 28 25 22 11 6 17 16 16 17 12 14 18 24 23 19 19 21 19 20 18 21 18 6 10 11 14 16 13 11 19 21 23 23 21 21
34 33 32 34 35 35 35 38 33 29 23 20 14 6 12 23 13 23 17 19 18 21 19 25 23 18 19 22 20 21 19 14 7 10 9 7 14 12 18 14 19 22 21 21 20
36 36 35 36 37 36 39 38 29 24 19 13 8 8 10 18 23 24 14 19 20 23 22 22 24 21 22 18 22 22 20 14 16 14 11 15 4 8 19 16 19 21 20 19 20
36 38 38 37 38 37 42 32 27 22 8 5 6 10 13 9 22 24 26 21 21 21 19 21 21 20 21 21 18 20 16 17 9 13 16 11 13 19 11 17 19 19 20 19 18
35 38 39 38 38 39 37 30 16 6 5 7 15 10 17 16 18 21 22 23 17 17 17 17 15 17 19 17 17 22 19 20 17 18 18 21 13 17 27 17 19 19 19 18 19
37 39 42 39 37 35 35 12 4 6 12 15 10 14 17 20 19 13 22 25 21 18 20 22 16 21 26 25 24 24 20 24 14 18 19 19 17 16 29 21 19 20 18 20 20
37 38 42 41 38 25 18 8 7 9 15 20 29 27 32 19 13 15 19 18 21 20 22 20 25 26 24 26 26 28 26 24 22 26 27 17 25 32 33 21 20 21 20 19 20
37 38 39 40 35 13 16 20 11 15 10 18 30 29 31 25 21 18 22 21 23 23 24 25 24 25 26 26 28 27 26 22 10 24 23 16 18 22 23 22 19 20 23 21 20
37 36 37 41 14 25 13 8 13 14 7 11 14 23 26 28 30 24 25 21 18 24 24 25 25 26 27 29 28 26 26 26 14 17 13 20 14 17 21 23 22 20 19 23 22
36 35 36 31 22 11 16 16 15 11 7 4 15 5 18 30 8 31 34 25 25 24 17 24 25 28 29 31 30 25 26 24 22 17 18 18 13 14 18 20 24 22 21 20 24
36 36 37 19 11 22 22 18 13 6 11 7 11 11 18 27 30 15 32 27 23 24 24 24 23 28 27 27 29 26 25 25 22 18 14 16 13 25 19 19 7 22 22 21 21
37 40 41 24 10 15 15 10 6 10 9 14 17 15 20 21 27 18 27 30 26 24 24 25 27 25 25 24 27 28 25 15 17 17 17 23 22 14 12 15 5 12 20 23 22
40 42 28 21 19 18 13 7 16 11 28 12 12 19 22 22 25 28 23 25 31 25 18 22 21 29 24 29 25 25 26 16 20 18 19 23 20 14 23 19 12 24 26 24 22
39 27 26 21 22 16 9 15 11 20 16 19 23 20 23 25 23 27 28 26 31 32 25 21 25 20 30 23 27 26 26 26 25 23 17 18 17 21 17 16 27 31 9 6 10
27 30 22 20 14 13 12 28 19 27 26 25 25 22 26 24 27 28 28 27 28 32 29 24 18 23 24 27 29 28 18 24 20 26 25 20 20 12 19 20 15 17 18 19 20
17 8 27 5 10 9 16 23 26 32 32 30 29 29 29 26 27 28 28 26 29 28 29 27 22 20 24 27 27 20 23 24 21 21 17 17 16 16 18 22 19 22 18 19 13
14 9 12 8 10 10 17 27 26 31 31 31 29 30 31 30 28 29 31 27 22 28 29 27 18 20 27 26 29 30 29 28 18 22 18 19 16 16 7 21 20 18 16 14 14
8 12 27 29 16 14 22 29 29 28 28 31 31 31 28 30 28 30 29 25 25 26 26 22 22 17 24 25 25 30 28 27 27 23 21 19 17 22 8 12 16 14 16 17 13
5 7 11 11 17 20 14 19 25 25 28 29 24 23 30 30 28 29 28 29 27 30 8 18 21 28 19 20 19 24 29 29 27 19 22 20 20 26 10 20 18 11 14 8 7
4 7 16 9 14 9 9 14 22 26 21 22 17 20 15 14 26 28 30 31 31 14 12 15 16 20 28 31 27 27 29 28 28 26 22 23 21 24 23 12 13 4 7 7 5
3 8 10 15 21 22 15 20 18 26 20 24 17 19 20 18 14 17 28 25 24 21 20 19 18 17 24 28 30 28 27 27 30 29 29 26 25 20 24 20 10 17 14 11 10
7 11 6 10 18 17 16 13 14 20 13 16 11 14 19 19 22 26 26 28 30 25 17 20 16 16 21 23 24 26 30 24 24 26 23 24 23 17 16 13 14 14 14 14 17
Wind_Direction
358 357 353 351 349 347 343 340 337 335 330 326 323 321 322 317 310 290 255 250 232 236 189 209 222 241 243 252 259 274 305 297 267 110 118 174 107 89 122 126 123 119 152 152 150
357 354 352 350 348 346 342 338 333 330 326 323 321 319 321 318 310 280 258 252 244 210 202 214 216 233 244 245 248 83 332 311 300 138 130 125 152 109 121 137 128 139 132 141 150
353 352 350 349 347 344 341 336 332 327 323 320 317 316 319 323 290 292 233 216 217 222 224 229 228 229 244 251 255 145 210 249 266 127 124 152 117 154 135 166 154 135 139 155 159
349 348 347 346 343 340 336 333 330 324 319 317 313 311 316 310 288 135 121 126 215 220 228 236 231 234 239 245 196 97 262 255 256 137 135 154 133 161 152 151 144 138 148 162 163
348 347 344 343 341 337 332 329 327 320 315 314 310 307 334 244 249 251 197 202 185 200 215 228 224 233 236 245 256 146 216 237 220 175 155 127 144 131 155 132 139 144 157 165 170
350 345 342 341 339 334 329 326 322 316 311 310 305 300 245 260 260 202 195 189 209 203 216 230 228 233 248 245 263 262 184 242 142 168 177 162 137 149 130 137 144 151 165 172 176
352 346 341 339 336 332 328 323 317 310 308 304 296 236 256 245 273 169 198 205 213 206 220 225 240 245 247 261 259 269 262 226 190 234 179 174 144 171 144 166 149 159 171 176 182
348 346 341 337 334 331 328 319 312 304 303 288 269 200 258 260 244 251 222 213 216 212 218 231 226 247 254 253 262 264 254 237 209 215 168 200 13 173 148 173 159 170 176 177 186
344 343 340 335 333 330 325 317 307 296 280 250 179 221 261 244 228 218 217 216 224 231 224 230 234 226 242 248 248 251 240 229 131 224 156 173 136 276 275 179 170 177 180 181 185
342 340 338 334 332 331 322 319 295 276 249 228 260 249 240 234 202 212 219 218 221 217 218 221 228 225 225 230 231 237 218 244 172 205 198 122 127 273 266 199 180 183 182 188 187
340 339 337 333 328 329 328 336 248 200 222 240 190 224 280 212 220 201 191 199 215 217 216 210 214 220 216 225 235 245 227 228 159 356 202 162 150 251 241 209 189 184 187 191 195
340 338 336 333 326 322 308 284 7 320 292 261 255 255 253 224 190 207 197 203 211 210 212 213 219 221 217 220 231 245 254 244 166 173 233 188 179 185 222 189 191 185 187 195 194
335 336 337 334 327 312 306 292 323 316 283 279 237 235 227 238 243 212 196 203 205 213 210 223 214 222 214 221 225 235 247 253 198 195 208 198 205 191 180 183 195 197 185 194 197
334 333 337 338 317 327 294 360 324 323 279 265 215 229 222 221 235 233 203 204 221 215 221 222 233 209 221 219 224 231 235 253 242 172 200 214 221 204 196 184 188 192 207 190 192
332 330 332 331 294 290 321 329 315 279 284 125 178 183 187 201 165 207 221 201 217 218 217 224 219 230 210 223 222 233 235 238 252 231 193 191 264 261 206 200 186 189 200 210 189
327 326 328 330 266 265 291 296 291 236 242 244 145 195 197 202 217 230 200 224 217 229 233 235 225 227 228 216 230 227 239 246 245 253 227 195 181 266 194 203 206 188 201 199 207
324 321 313 281 256 312 330 286 224 229 226 230 182 194 208 199 207 204 191 203 211 216 226 225 236 229 232 217 219 232 228 230 236 236 242 215 189 209 266 177 186 246 250 195 195
323 320 299 260 257 269 257 239 235 235 224 281 253 195 209 212 208 222 195 208 212 213 217 223 221 227 210 229 222 220 227 227 229 230 237 238 236 197 200 171 158 227 227 206 190
325 317 292 263 233 221 238 225 231 228 279 239 256 256 214 214 221 209 211 210 211 211 218 218 229 218 227 213 231 218 223 231 239 244 249 237 223 223 208 189 186 205 185 171 154
318 304 274 246 228 201 229 238 247 259 282 293 282 275 248 222 216 223 210 214 218 209 223 234 244 218 211 226 220 229 219 222 233 239 243 243 247 236 190 174 206 204 191 187 215
305 293 286 180 189 221 237 248 251 265 274 277 283 284 277 260 241 225 229 209 209 217 214 226 242 243 212 204 219 211 230 238 233 240 245 246 245 240 184 188 197 207 191 231 212
302 275 267 205 239 238 250 254 257 266 277 279 274 261 270 278 275 255 227 231 221 208 216 213 224 239 244 217 211 218 215 230 236 223 238 256 249 245 225 199 189 208 220 204 222
292 284 272 278 260 257 267 265 265 267 260 262 266 269 264 259 269 273 274 250 212 236 214 210 216 226 239 246 219 211 223 221 238 247 241 235 243 258 112 46 270 202 209 211 209
292 293 290 249 246 254 305 308 306 286 252 257 285 291 264 262 257 264 267 273 271 219 114 209 223 218 232 230 233 219 215 221 232 230 238 245 233 257 230 179 226 151 243 193 192
269 281 317 310 301 287 302 299 301 297 297 301 293 284 340 298 255 256 256 266 271 212 194 221 233 249 219 245 230 235 219 219 227 240 242 238 239 224 251 202 210 248 190 231 207
271 305 333 303 297 300 278 271 263 284 0 324 264 290 312 295 336 318 320 283 258 246 202 217 231 244 254 226 240 247 229 230 218 225 241 247 248 245 227 247 199 194 240 219 210
258 276 279 293 292 292 290 300 307 311 292 290 45 323 302 319 318 305 292 282 278 262 218 197 224 221 239 240 237 237 240 234 236 222 229 240 249 256 250 267 260 216 237 235 197